Showing default

QIANFAN-106, 66048

Orbit data source: Space-Track

QIANFAN-106, 66048 is a Chinese payload satellite in LEO that was launched on Fri, 17 Oct 2025 UTC via a CHANG ZHENG 6A launch vehicle from the Taiyaun Space Center, China (TSC). Payload-class satellites include a variety of spacecraft equipped with specific instruments for various scientific and technological missions. These include communications satellites like Starlink; space stations such as the ISS; scientific satellites like the Hubble; Earth observation satellites from companies like Planet Labs, Umbra, and HawkEye 360; GPS; miniature CubeSats for education and research; and military/defense satellites.

Loading next visibility...
Identifier
66048, 2025-233R
Orbit
LEO
Country
Flag of CNCN / PRC
Related business
Manufacturer
SECM
Mission
Operational Commercial Communications
Bus & Motor
QIANFAN, Unknown motor
Mass
267 kg wet, ~267 kg dry
Launch date (UTC)
2025-10-17 (7 months ago)
Launch vehicle
CHANG ZHENG 6A
Launch site
Taiyaun Space Center, China (TSC)
Object type
Payload
Rocket body
Debris
Shape & HBR
Box + 1 Pan, 14.5 m
Radar Cross Section
13.200 m²

Expand to show TLE details & history
Last TLE update: 16 hours ago

TLE from 16 hours ago
0 QIANFAN-106
1 66048U 25233R   26129.82459425 -.01627449  00000-0 -28938+1 0  9993
2 66048  89.0010  47.0301 0012030 147.1643 213.0255 13.46029535 28018
Epoch: 2026-05-09T19:47Z
TLE epoch observation values (Epoch: 2026-05-09T19:47:24.943Z)
Latitude
-0.00002°
Longitude
-117.46031°
Altitude
1,097.383 km
Speed
7.3 km/s
True Right ascension
03h 08m 07s
True Declination
0° 00' 00"
Sunlit
Object was in daylight at epoch
Visualization orbit readout
Latitude
Unknown
Longitude
Unknown
Altitude
Unknown
Speed
Unknown
Apparent Right ascension
Unknown
Apparent Declination
Unknown
Sunlit
N/A
Visualization observer readout
Local Sidereal Time
19:44:23
Azimuth
Unknown
Elevation
Unknown
Doppler factor
Unknown
Orbital elements
Apogee altitude
1,092.938 km
Perigee altitude
1,074.984 km
Semi-major axis
7,462.098 km
Eccentricity
0.0012
Inclination
89.001°
RAAN
47.0301°
Arg. of periapsis
147.1643°
True anomaly
212.95046°
Mean anomaly
213.0255°
Eccentric anomaly
212.98797°
Mean motion
3.36707 °/min
Orbital period
106.92 mins
BSTAR
-2.8938
Loading maneuver chart data...
Computing Atmospheric mass density...
Loading historical data...
Loading historical data...
Loading historical data...
Loading historical data...
Loading historical data...
Loading historical data...
Loading historical data...

Documentation

Showing up to 5 results
|